Stündliche Wetter Holubkove

Heute, 21 Juni, Montag

Zeit Temperatur Niederschläge Wind Luftdruck Luftfeuchtigkeit
00:00 +20°C° 0 mm 4 m/S 747 mmHg 80%
01:00 +19°C° 0 mm 5 m/S 747 mmHg 81%
02:00 +19°C° 0 mm 5 m/S 746 mmHg 82%
03:00 +19°C° 0 mm 5 m/S 746 mmHg 82%
04:00 +19°C° 0 mm 5 m/S 746 mmHg 82%
05:00 +19°C° 0 mm 5 m/S 746 mmHg 82%
06:00 +20°C° 0 mm 5 m/S 746 mmHg 81%
07:00 +21°C° 0 mm 5 m/S 746 mmHg 79%
08:00 +22°C° 0 mm 5 m/S 746 mmHg 78%
09:00 +23°C° 0 mm 5 m/S 746 mmHg 75%
10:00 +26°C° 0 mm 5 m/S 746 mmHg 72%
11:00 +27°C° 0 mm 6 m/S 746 mmHg 68%
12:00 +28°C° 0 mm 6 m/S 746 mmHg 66%
13:00 +29°C° 0 mm 6 m/S 746 mmHg 65%
14:00 +30°C° 0 mm 6 m/S 746 mmHg 62%
15:00 +29°C° 0 mm 6 m/S 746 mmHg 65%
16:00 +29°C° 0 mm 6 m/S 746 mmHg 68%
17:00 +28°C° 0 mm 5 m/S 746 mmHg 70%
18:00 +26°C° 0 mm 5 m/S 746 mmHg 76%
19:00 +25°C° 0 mm 4 m/S 746 mmHg 82%
20:00 +22°C° 0 mm 4 m/S 747 mmHg 88%
21:00 +21°C° 0 mm 4 m/S 747 mmHg 89%
22:00 +20°C° 0 mm 3 m/S 747 mmHg 90%
23:00 +19°C° 0 mm 3 m/S 747 mmHg 91%

Morgen, 22 Juni, Dienstag

Zeit Temperatur Niederschläge Wind Luftdruck Luftfeuchtigkeit
00:00 +19°C° 0 mm 3 m/S 747 mmHg 90%
01:00 +19°C° 0 mm 3 m/S 747 mmHg 88%
02:00 +18°C° 0 mm 3 m/S 746 mmHg 87%
03:00 +18°C° 0 mm 3 m/S 747 mmHg 86%
04:00 +18°C° 0 mm 3 m/S 747 mmHg 85%
05:00 +18°C° 0 mm 3 m/S 747 mmHg 84%
06:00 +20°C° 0 mm 3 m/S 747 mmHg 79%
07:00 +22°C° 0 mm 4 m/S 747 mmHg 74%
08:00 +25°C° 0 mm 5 m/S 747 mmHg 69%
09:00 +27°C° 0 mm 5 m/S 747 mmHg 65%
10:00 +28°C° 0 mm 5 m/S 747 mmHg 61%
11:00 +29°C° 0 mm 5 m/S 747 mmHg 57%
12:00 +29°C° 0 mm 5 m/S 747 mmHg 59%
13:00 +29°C° 0 mm 5 m/S 747 mmHg 61%
14:00 +29°C° 0 mm 4 m/S 747 mmHg 63%
15:00 +28°C° 0 mm 4 m/S 747 mmHg 66%
16:00 +28°C° 0 mm 4 m/S 747 mmHg 68%
17:00 +28°C° 0 mm 4 m/S 747 mmHg 71%
18:00 +26°C° 0 mm 4 m/S 747 mmHg 77%
19:00 +25°C° 0 mm 4 m/S 747 mmHg 83%
20:00 +22°C° 0 mm 3 m/S 747 mmHg 89%
21:00 +22°C° 0 mm 3 m/S 747 mmHg 90%
22:00 +21°C° 0 mm 3 m/S 747 mmHg 91%
23:00 +21°C° 0 mm 3 m/S 747 mmHg 93%

übermorgen, 23 Juni, Mittwoch

Zeit Temperatur Niederschläge Wind Luftdruck Luftfeuchtigkeit
00:00 +21°C° 0 mm 3 m/S 747 mmHg 93%
01:00 +21°C° 0 mm 3 m/S 747 mmHg 93%
02:00 +20°C° 0 mm 3 m/S 747 mmHg 93%
03:00 +20°C° 0 mm 3 m/S 747 mmHg 91%
04:00 +21°C° 0 mm 3 m/S 747 mmHg 89%
05:00 +21°C° 0 mm 3 m/S 747 mmHg 88%
06:00 +22°C° 0 mm 4 m/S 747 mmHg 83%
07:00 +25°C° 0 mm 5 m/S 747 mmHg 78%
08:00 +27°C° 0 mm 5 m/S 748 mmHg 74%
09:00 +28°C° 0 mm 5 m/S 748 mmHg 70%
10:00 +29°C° 0 mm 5 m/S 748 mmHg 67%
11:00 +30°C° 0 mm 6 m/S 748 mmHg 63%
12:00 +30°C° 0 mm 5 m/S 748 mmHg 64%
13:00 +32°C° 0 mm 5 m/S 747 mmHg 65%
14:00 +32°C° 0 mm 5 m/S 747 mmHg 66%
15:00 +30°C° 0 mm 5 m/S 747 mmHg 69%
16:00 +30°C° 0 mm 4 m/S 747 mmHg 72%
17:00 +29°C° 0 mm 4 m/S 747 mmHg 75%
18:00 +28°C° 0 mm 3 m/S 747 mmHg 80%
19:00 +26°C° 0 mm 3 m/S 748 mmHg 84%
20:00 +25°C° 0 mm 3 m/S 748 mmHg 89%
21:00 +24°C° 0 mm 3 m/S 748 mmHg 88%
22:00 +24°C° 0 mm 3 m/S 748 mmHg 88%
23:00 +22°C° 0 mm 3 m/S 748 mmHg 88%

24 Juni, Donnerstag

Zeit Temperatur Niederschläge Wind Luftdruck Luftfeuchtigkeit
00:00 +21°C° 0 mm 3 m/S 748 mmHg 85%
01:00 +21°C° 0 mm 3 m/S 748 mmHg 83%
02:00 +21°C° 0 mm 3 m/S 748 mmHg 80%
03:00 +21°C° 0 mm 3 m/S 748 mmHg 82%
04:00 +21°C° 0 mm 3 m/S 748 mmHg 83%
05:00 +21°C° 0 mm 3 m/S 748 mmHg 84%
06:00 +24°C° 0 mm 3 m/S 748 mmHg 80%
07:00 +25°C° 0 mm 3 m/S 748 mmHg 75%
08:00 +27°C° 0 mm 4 m/S 748 mmHg 71%
09:00 +28°C° 0 mm 4 m/S 748 mmHg 67%
10:00 +30°C° 0 mm 4 m/S 748 mmHg 63%
11:00 +32°C° 0 mm 5 m/S 748 mmHg 59%
12:00 +32°C° 0 mm 4 m/S 748 mmHg 58%
13:00 +32°C° 0 mm 4 m/S 748 mmHg 57%
14:00 +32°C° 0 mm 4 m/S 748 mmHg 55%
15:00 +30°C° 0 mm 4 m/S 748 mmHg 60%
16:00 +29°C° 0 mm 3 m/S 748 mmHg 64%
17:00 +28°C° 0 mm 3 m/S 748 mmHg 68%
18:00 +27°C° 0 mm 2 m/S 748 mmHg 69%
19:00 +25°C° 0 mm 2 m/S 747 mmHg 70%
20:00 +24°C° 0 mm 2 m/S 747 mmHg 72%
21:00 +23°C° 0 mm 2 m/S 747 mmHg 75%
22:00 +23°C° 0 mm 2 m/S 747 mmHg 78%
23:00 +21°C° 0 mm 2 m/S 747 mmHg 81%

25 Juni, Freitag

Zeit Temperatur Niederschläge Wind Luftdruck Luftfeuchtigkeit
00:00 +21°C° 0 mm 2 m/S 747 mmHg 81%
01:00 +21°C° 0 mm 2 m/S 747 mmHg 80%
02:00 +22°C° 0 mm 1 m/S 747 mmHg 79%
03:00 +21°C° 0 mm 2 m/S 747 mmHg 80%
04:00 +21°C° 0 mm 2 m/S 747 mmHg 80%
05:00 +21°C° 0 mm 2 m/S 747 mmHg 81%
06:00 +24°C° 0 mm 2 m/S 747 mmHg 76%
07:00 +26°C° 0 mm 2 m/S 747 mmHg 72%
08:00 +27°C° 0 mm 2 m/S 747 mmHg 67%
09:00 +28°C° 0 mm 2 m/S 747 mmHg 65%
10:00 +30°C° 0 mm 2 m/S 747 mmHg 63%
11:00 +31°C° 0 mm 2 m/S 747 mmHg 61%
12:00 +31°C° 0 mm 2 m/S 747 mmHg 59%
13:00 +32°C° 0 mm 2 m/S 747 mmHg 58%
14:00 +32°C° 0 mm 1 m/S 747 mmHg 56%
15:00 +31°C° 0.1 mm 2 m/S 747 mmHg 61%
16:00 +31°C° 0.1 mm 2 m/S 746 mmHg 66%
17:00 +30°C° 0.1 mm 2 m/S 746 mmHg 71%
18:00 +29°C° 0.2 mm 2 m/S 746 mmHg 75%
19:00 +27°C° 0.2 mm 2 m/S 746 mmHg 79%
20:00 +26°C° 0.2 mm 2 m/S 746 mmHg 83%
21:00 +25°C° 0 mm 2 m/S 746 mmHg 84%
22:00 +24°C° 0 mm 1 m/S 746 mmHg 84%
23:00 +24°C° 0 mm 1 m/S 746 mmHg 84%

26 Juni, Samstag

Zeit Temperatur Niederschläge Wind Luftdruck Luftfeuchtigkeit
00:00 +23°C° 0 mm 1 m/S 746 mmHg 85%
01:00 +23°C° 0 mm 1 m/S 746 mmHg 85%
02:00 +22°C° 0 mm 1 m/S 745 mmHg 85%
03:00 +23°C° 0 mm 1 m/S 745 mmHg 85%
04:00 +23°C° 0 mm 1 m/S 745 mmHg 84%
05:00 +23°C° 0 mm 1 m/S 745 mmHg 84%
06:00 +25°C° 0 mm 1 m/S 746 mmHg 80%
07:00 +26°C° 0 mm 1 m/S 746 mmHg 75%
08:00 +28°C° 0 mm 1 m/S 746 mmHg 71%
09:00 +29°C° 0 mm 1 m/S 746 mmHg 67%
10:00 +30°C° 0 mm 1 m/S 746 mmHg 62%
11:00 +31°C° 0 mm 1 m/S 746 mmHg 58%
12:00 +32°C° 0 mm 1 m/S 746 mmHg 56%
13:00 +32°C° 0 mm 1 m/S 746 mmHg 53%
14:00 +30°C° 0 mm 0 m/S 745 mmHg 51%
15:00 +30°C° 0 mm 0 m/S 745 mmHg 53%
16:00 +30°C° 0 mm 0 m/S 745 mmHg 54%
17:00 +32°C° 0 mm 1 m/S 745 mmHg 56%
18:00 +29°C° 0.6 mm 2 m/S 745 mmHg 67%
19:00 +25°C° 0.6 mm 3 m/S 744 mmHg 78%
20:00 +20°C° 0.6 mm 4 m/S 744 mmHg 89%
21:00 +20°C° 0.4 mm 3 m/S 744 mmHg 89%
22:00 +20°C° 0.4 mm 3 m/S 745 mmHg 89%
23:00 +20°C° 0.4 mm 2 m/S 745 mmHg 90%
Mehr zeigen

Wir brauchen deine Erlaubnis

Meteoprog und unser Service Anbieter werden persönliche Daten aufbewahren, so wie Cookies, Geräte Bezeichnung oder ähnliche Technologien von deinem Gerät und Prozess, so wie Persönliche Daten Inhalte und Werbungen, genauso wie social Media und den Verkehr zu analysieren.

  • Aufbewahrung und/oder Zugang zu deiner Geräte Informationen.

    Cookies, Geräte Bezeichnung oder andere Informationen, können aufbewahrt oder Zugang zu deinem Gerät erhalten, für den Grund, der oben angegeben wird.

  • Personalisierte Werbung und Inhalte, Messungen, Einblick in das Publikum und Produkt Entwicklung.

    Werbungen und Inhalte können personalisiert werden, basierend auf ein Profil. Mehr Daten können besser personalisierte Werbungen und Inhalte hinzufügen. Werbung und Inhalte können gezeigt und gemessen werden. Einblicke über das Publikum, welche die Werbung gesehen haben und den Inhalt, können abgeleitet werden. So wie Daten können genutzt werden, um es zu verbessern oder die Benutzer Erfahrung zu verbessern das System und die Software.

Wenn du “Ich stimme zu” klickst, erlaubst du uns, die Cookies zu benutzen die Geräte Bezeichnung, den Web oder ähnliche Technologien zu benutzen. Deine Settings, können in deinem Gerät bei deinem Browser geändert werden.

Für den bestimmten Zweck, berechtigten Interessen beruhen darauf, mehr als auf den Inhalt. Du kannst mehr darüber in unseren Privaten und Cookie Politik lesen.